Location: Kellogg
(38.0159°N, 90.0546°W)
Time: 20:20:54
(UTC+00:00)

Vanguard 1 - Pass Details

Date: 14 September 2024
Orbit: 648 x 3825 km, 34.3° (Epoch: 11 October)

Event Time Altitude Azimuth Distance (km) Brightness Sun altitude
Rises 21:55:15 0° 271° (W) 4,397 14.6 25.2°
Reaches altitude 10° 21:58:51 10° 267° (W) 3,002 14.2 24.5°
Maximum altitude 22:05:18 54° 192° (SSW) 961 10.6 23.3°
Drops below altitude 10° 22:09:46 10° 115° (ESE) 2,096 11.4 22.4°
Sets 22:11:53 0° 110° (ESE) 2,953 12.1 22.0°
